Time,TemperatureF,DewpointF,PressureIn,WindDirection,WindDirectionDegrees,WindSpeedMPH,WindSpeedGustMPH,Humidity,HourlyPrecipIn,Conditions,Clouds,dailyrainin,SoftwareType,DateUTC
2013-07-04 00:01:00,63.2,58.6,30.07,NNE,30,0.0,0.0,85,0.00,,---,0.00,VWS V14.01,2013-07-04 04:01:00,
2013-07-04 00:06:00,63.4,58.5,30.07,NNE,30,0.0,0.0,84,0.00,,---,0.00,VWS V14.01,2013-07-04 04:06:00,
2013-07-04 00:11:00,63.4,58.2,30.07,NNE,30,0.0,0.0,83,0.00,,---,0.00,VWS V14.01,2013-07-04 04:11:00,
2013-07-04 00:17:00,63.5,57.9,30.07,NNE,30,0.0,0.0,82,0.00,,---,0.00,VWS V14.01,2013-07-04 04:17:00,
2013-07-04 00:22:00,63.7,58.1,30.07,NNE,30,0.0,0.0,82,0.00,,---,0.00,VWS V14.01,2013-07-04 04:22:00,
2013-07-04 00:27:00,63.9,58.3,30.07,NNE,30,0.0,0.0,82,0.00,,---,0.00,VWS V14.01,2013-07-04 04:27:00,
2013-07-04 00:32:00,63.9,58.3,30.07,NNE,30,0.0,0.0,82,0.00,,---,0.00,VWS V14.01,2013-07-04 04:32:00,
2013-07-04 00:37:00,64.2,58.6,30.07,NNE,30,0.0,0.0,82,0.00,,---,0.00,VWS V14.01,2013-07-04 04:37:00,
2013-07-04 00:42:00,64.3,58.7,30.07,NNE,33,0.0,0.0,82,0.00,,---,0.00,VWS V14.01,2013-07-04 04:42:00,
2013-07-04 00:47:00,64.5,59.2,30.07,NNE,29,0.0,0.0,83,0.00,,---,0.00,VWS V14.01,2013-07-04 04:47:00,
2013-07-04 00:52:00,64.5,59.6,30.08,NNE,29,0.0,0.0,84,0.00,,---,0.00,VWS V14.01,2013-07-04 04:52:00,
2013-07-04 00:57:00,64.5,59.9,30.07,NNE,29,0.0,0.0,85,0.00,,---,0.00,VWS V14.01,2013-07-04 04:57:00,
2013-07-04 01:02:00,64.5,60.2,30.07,NNE,29,0.0,0.0,86,0.00,,---,0.00,VWS V14.01,2013-07-04 05:02:00,
2013-07-04 01:07:00,64.3,60.0,30.07,NNE,29,0.0,0.0,86,0.00,,---,0.00,VWS V14.01,2013-07-04 05:07:00,
2013-07-04 01:12:00,64.2,60.3,30.07,NNE,29,0.0,0.0,87,0.00,,---,0.00,VWS V14.01,2013-07-04 05:12:00,
2013-07-04 01:17:00,64.0,60.1,30.07,NNE,29,0.0,0.0,87,0.00,,---,0.00,VWS V14.01,2013-07-04 05:17:00,
2013-07-04 01:22:00,63.9,60.0,30.06,NNE,29,0.0,0.0,87,0.00,,---,0.00,VWS V14.01,2013-07-04 05:22:00,
2013-07-04 01:27:00,63.7,60.1,30.06,NNE,29,0.0,0.0,88,0.00,,---,0.00,VWS V14.01,2013-07-04 05:27:00,
2013-07-04 01:32:00,63.5,60.2,30.06,NNE,29,0.0,0.0,89,0.00,,---,0.00,VWS V14.01,2013-07-04 05:32:00,
2013-07-04 01:37:00,63.5,60.2,30.06,NNE,29,0.0,0.0,89,0.00,,---,0.00,VWS V14.01,2013-07-04 05:37:00,
2013-07-04 01:42:00,63.5,60.2,30.06,NNE,29,0.0,0.0,89,0.00,,---,0.00,VWS V14.01,2013-07-04 05:42:00,
2013-07-04 01:47:00,63.5,60.5,30.06,NNE,29,0.0,0.0,90,0.00,,---,0.00,VWS V14.01,2013-07-04 05:47:00,
2013-07-04 01:52:00,63.5,60.5,30.06,NNE,29,0.0,0.0,90,0.00,,---,0.00,VWS V14.01,2013-07-04 05:52:00,
2013-07-04 01:57:00,63.5,60.5,30.06,NNE,29,0.0,0.0,90,0.00,,---,0.00,VWS V14.01,2013-07-04 05:57:00,
2013-07-04 02:02:00,63.5,60.5,30.06,NNE,29,0.0,0.0,90,0.00,,---,0.00,VWS V14.01,2013-07-04 06:02:00,
2013-07-04 02:07:00,63.5,60.5,30.06,NNE,29,0.0,0.0,90,0.00,,---,0.00,VWS V14.01,2013-07-04 06:07:00,
2013-07-04 02:12:00,63.5,60.5,30.06,NNE,29,0.0,0.0,90,0.00,,---,0.00,VWS V14.01,2013-07-04 06:12:00,
2013-07-04 02:17:00,63.5,60.5,30.06,NNE,29,0.0,0.0,90,0.00,,---,0.00,VWS V14.01,2013-07-04 06:17:00,
2013-07-04 02:22:00,63.4,60.4,30.05,NNE,29,0.0,0.0,90,0.00,,---,0.00,VWS V14.01,2013-07-04 06:22:00,
2013-07-04 02:27:00,63.4,60.4,30.05,NNE,29,0.0,0.0,90,0.00,,---,0.00,VWS V14.01,2013-07-04 06:27:00,
2013-07-04 02:32:00,63.2,60.2,30.05,NNE,29,0.0,0.0,90,0.00,,---,0.00,VWS V14.01,2013-07-04 06:32:00,
2013-07-04 02:37:00,63.1,60.1,30.05,NNE,29,0.0,0.0,90,0.00,,---,0.00,VWS V14.01,2013-07-04 06:37:00,
2013-07-04 02:42:00,63.1,60.1,30.05,NNE,29,0.0,0.0,90,0.00,,---,0.00,VWS V14.01,2013-07-04 06:42:00,
2013-07-04 02:47:00,62.9,59.9,30.05,NNE,29,0.0,0.0,90,0.00,,---,0.00,VWS V14.01,2013-07-04 06:47:00,
2013-07-04 02:52:00,62.7,60.0,30.05,NNE,29,0.0,0.0,91,0.00,,---,0.00,VWS V14.01,2013-07-04 06:52:00,
2013-07-04 02:57:00,62.6,59.9,30.05,NNE,29,0.0,0.0,91,0.00,,---,0.00,VWS V14.01,2013-07-04 06:57:00,
2013-07-04 03:02:00,62.4,59.7,30.05,NNE,29,0.0,0.0,91,0.00,,---,0.00,VWS V14.01,2013-07-04 07:02:00,
2013-07-04 03:07:00,62.3,60.0,30.05,NNE,29,0.0,0.0,92,0.00,,---,0.00,VWS V14.01,2013-07-04 07:07:00,
2013-07-04 03:12:00,62.1,59.8,30.05,NNE,29,0.0,0.0,92,0.00,,---,0.00,VWS V14.01,2013-07-04 07:12:00,
2013-07-04 03:17:00,62.0,59.7,30.05,NNE,29,0.0,0.0,92,0.00,,---,0.00,VWS V14.01,2013-07-04 07:17:00,
2013-07-04 03:22:00,61.8,59.5,30.05,NNE,29,0.0,0.0,92,0.00,,---,0.00,VWS V14.01,2013-07-04 07:22:00,
2013-07-04 03:27:00,61.6,59.6,30.05,NNE,29,0.0,0.0,93,0.00,,---,0.00,VWS V14.01,2013-07-04 07:27:00,
2013-07-04 03:32:00,61.6,59.6,30.05,NNE,29,0.0,0.0,93,0.00,,---,0.00,VWS V14.01,2013-07-04 07:32:00,
2013-07-04 03:37:00,61.5,59.8,30.05,NNE,29,0.0,0.0,94,0.00,,---,0.00,VWS V14.01,2013-07-04 07:37:00,
2013-07-04 03:42:00,61.5,59.8,30.04,NNE,29,0.0,0.0,94,0.00,,---,0.00,VWS V14.01,2013-07-04 07:42:00,
2013-07-04 03:47:00,61.3,59.6,30.05,NNE,29,0.0,0.0,94,0.00,,---,0.00,VWS V14.01,2013-07-04 07:47:00,
2013-07-04 03:52:00,61.3,59.6,30.05,NNE,29,0.0,0.0,94,0.00,,---,0.00,VWS V14.01,2013-07-04 07:52:00,
2013-07-04 03:58:00,61.2,59.8,30.05,NNE,29,0.0,0.0,95,0.00,,---,0.00,VWS V14.01,2013-07-04 07:58:00,
2013-07-04 04:03:00,61.2,59.8,30.05,NNE,29,0.0,0.0,95,0.00,,---,0.00,VWS V14.01,2013-07-04 08:03:00,
2013-07-04 04:08:00,61.2,59.8,30.05,NNE,29,0.0,0.0,95,0.00,,---,0.00,VWS V14.01,2013-07-04 08:08:00,
2013-07-04 04:13:00,61.2,60.0,30.05,NNE,29,0.0,0.0,96,0.00,,---,0.00,VWS V14.01,2013-07-04 08:13:00,
2013-07-04 04:18:00,61.2,60.0,30.04,NNE,29,0.0,0.0,96,0.00,,---,0.00,VWS V14.01,2013-07-04 08:18:00,
2013-07-04 04:23:00,61.2,60.0,30.04,NNE,29,0.0,0.0,96,0.00,,---,0.00,VWS V14.01,2013-07-04 08:23:00,
2013-07-04 04:28:00,61.2,60.0,30.04,NNE,29,0.0,0.0,96,0.00,,---,0.00,VWS V14.01,2013-07-04 08:28:00,
2013-07-04 04:33:00,61.0,59.9,30.04,NNE,29,0.0,0.0,96,0.00,,---,0.00,VWS V14.01,2013-07-04 08:33:00,
2013-07-04 04:38:00,61.0,59.9,30.04,NNE,29,0.0,0.0,96,0.00,,---,0.00,VWS V14.01,2013-07-04 08:38:00,
2013-07-04 04:43:00,60.9,59.8,30.04,NNE,29,0.0,0.0,96,0.00,,---,0.00,VWS V14.01,2013-07-04 08:43:00,
2013-07-04 04:48:00,60.9,59.8,30.04,NNE,29,0.0,0.0,96,0.00,,---,0.00,VWS V14.01,2013-07-04 08:48:00,
2013-07-04 04:53:00,60.9,59.8,30.05,NNE,29,0.0,0.0,96,0.00,,---,0.00,VWS V14.01,2013-07-04 08:53:00,
2013-07-04 04:58:00,60.9,59.8,30.05,NNE,29,0.0,0.0,96,0.00,,---,0.00,VWS V14.01,2013-07-04 08:58:00,
2013-07-04 05:03:00,60.9,60.0,30.04,NNE,29,0.0,0.0,97,0.00,,---,0.00,VWS V14.01,2013-07-04 09:03:00,
2013-07-04 05:08:00,60.9,60.0,30.05,NNE,29,0.0,0.0,97,0.00,,---,0.00,VWS V14.01,2013-07-04 09:08:00,
2013-07-04 05:13:00,60.9,60.0,30.05,NNE,29,0.0,0.0,97,0.00,,---,0.00,VWS V14.01,2013-07-04 09:13:00,
2013-07-04 05:18:00,60.9,60.0,30.05,NNE,29,0.0,0.0,97,0.00,,---,0.00,VWS V14.01,2013-07-04 09:18:00,
2013-07-04 05:23:00,60.9,60.0,30.05,NNE,29,0.0,0.0,97,0.00,,---,0.00,VWS V14.01,2013-07-04 09:23:00,
2013-07-04 05:28:00,60.9,60.0,30.05,NNE,29,0.0,0.0,97,0.00,,---,0.00,VWS V14.01,2013-07-04 09:28:00,
2013-07-04 05:33:00,60.7,59.8,30.05,NNE,29,0.0,0.0,97,0.00,,---,0.00,VWS V14.01,2013-07-04 09:33:00,
2013-07-04 05:38:00,60.7,59.8,30.06,NNE,29,0.0,0.0,97,0.00,,---,0.00,VWS V14.01,2013-07-04 09:38:00,
2013-07-04 05:43:00,60.7,59.8,30.05,NNE,29,0.0,0.0,97,0.00,,---,0.00,VWS V14.01,2013-07-04 09:43:00,
2013-07-04 05:48:00,60.7,59.8,30.06,NNE,29,0.0,0.0,97,0.00,,---,0.00,VWS V14.01,2013-07-04 09:48:00,
2013-07-04 05:53:00,60.7,59.8,30.06,NNE,29,0.0,0.0,97,0.00,,---,0.00,VWS V14.01,2013-07-04 09:53:00,
2013-07-04 05:58:00,60.7,59.8,30.06,NNE,29,0.0,0.0,97,0.00,,---,0.00,VWS V14.01,2013-07-04 09:58:00,
2013-07-04 06:03:00,60.7,59.8,30.06,NNE,29,0.0,0.0,97,0.00,,---,0.00,VWS V14.01,2013-07-04 10:03:00,
2013-07-04 06:08:00,60.7,59.8,30.06,NNE,29,0.0,0.0,97,0.00,,---,0.00,VWS V14.01,2013-07-04 10:08:00,
2013-07-04 06:13:00,60.7,60.1,30.06,NNE,29,0.0,0.0,98,0.00,,---,0.00,VWS V14.01,2013-07-04 10:13:00,
2013-07-04 06:18:00,60.7,60.1,30.06,NNE,29,0.0,0.0,98,0.00,,---,0.00,VWS V14.01,2013-07-04 10:18:00,
2013-07-04 06:23:00,60.9,60.3,30.06,NNE,29,0.0,0.0,98,0.00,,---,0.00,VWS V14.01,2013-07-04 10:23:00,
2013-07-04 06:28:00,61.2,60.6,30.06,NNE,29,0.0,0.0,98,0.00,,---,0.00,VWS V14.01,2013-07-04 10:28:00,
2013-07-04 06:33:00,61.3,60.7,30.06,NNE,29,0.0,0.0,98,0.00,,---,0.00,VWS V14.01,2013-07-04 10:33:00,
2013-07-04 06:38:00,61.8,61.2,30.07,NNE,29,0.0,0.0,98,0.00,,---,0.00,VWS V14.01,2013-07-04 10:38:00,
2013-07-04 06:43:00,62.1,61.5,30.07,NNE,29,0.0,0.0,98,0.00,,---,0.00,VWS V14.01,2013-07-04 10:43:00,
2013-07-04 06:48:00,62.4,61.8,30.07,NNE,29,0.0,0.0,98,0.00,,---,0.00,VWS V14.01,2013-07-04 10:48:00,
2013-07-04 06:53:00,62.7,62.1,30.07,NNE,29,0.0,0.0,98,0.00,,---,0.00,VWS V14.01,2013-07-04 10:53:00,
2013-07-04 06:58:00,63.1,62.5,30.07,NNE,29,0.0,0.0,98,0.00,,---,0.00,VWS V14.01,2013-07-04 10:58:00,
2013-07-04 07:03:00,63.2,62.6,30.07,NNE,29,0.0,0.0,98,0.00,,---,0.00,VWS V14.01,2013-07-04 11:03:00,
2013-07-04 07:08:00,63.4,62.8,30.07,NNE,29,0.0,0.0,98,0.00,,---,0.00,VWS V14.01,2013-07-04 11:08:00,
2013-07-04 07:13:00,63.4,62.8,30.07,NNE,29,0.0,0.0,98,0.00,,---,0.00,VWS V14.01,2013-07-04 11:13:00,
2013-07-04 07:18:00,63.4,62.8,30.08,NNE,29,0.0,0.0,98,0.00,,---,0.00,VWS V14.01,2013-07-04 11:18:00,
2013-07-04 07:23:00,63.4,62.8,30.08,WNW,290,0.0,0.0,98,0.00,,---,0.00,VWS V14.01,2013-07-04 11:23:00,
2013-07-04 07:28:00,63.4,62.8,30.08,West,275,0.0,0.0,98,0.00,,---,0.00,VWS V14.01,2013-07-04 11:28:00,
2013-07-04 07:33:00,63.4,62.8,30.08,West,268,0.0,0.0,98,0.00,,---,0.00,VWS V14.01,2013-07-04 11:33:00,
2013-07-04 07:38:00,63.4,62.8,30.08,SSW,207,0.0,0.0,98,0.00,,---,0.00,VWS V14.01,2013-07-04 11:38:00,
2013-07-04 07:43:00,63.4,62.8,30.08,WSW,256,0.0,0.0,98,0.00,,---,0.00,VWS V14.01,2013-07-04 11:43:00,
2013-07-04 07:48:00,63.4,62.5,30.08,WSW,240,0.0,0.0,97,0.00,,---,0.00,VWS V14.01,2013-07-04 11:48:00,
2013-07-04 07:53:00,63.5,62.6,30.08,WSW,247,0.0,0.0,97,0.00,,---,0.00,VWS V14.01,2013-07-04 11:53:00,
2013-07-04 07:58:00,63.5,62.3,30.09,West,267,0.0,0.0,96,0.00,,---,0.00,VWS V14.01,2013-07-04 11:58:00,
2013-07-04 08:03:00,63.7,62.5,30.09,SW,216,0.0,0.0,96,0.00,,---,0.00,VWS V14.01,2013-07-04 12:03:00,
2013-07-04 08:08:00,63.7,62.5,30.09,West,279,0.0,0.0,96,0.00,,---,0.00,VWS V14.01,2013-07-04 12:08:00,
2013-07-04 08:14:00,63.9,62.4,30.09,West,279,0.0,0.0,95,0.00,,---,0.00,VWS V14.01,2013-07-04 12:14:00,
2013-07-04 08:18:00,63.9,62.4,30.09,West,279,0.0,0.0,95,0.00,,---,0.00,VWS V14.01,2013-07-04 12:18:00,
2013-07-04 08:23:00,63.9,62.1,30.09,West,277,0.0,0.0,94,0.00,,---,0.00,VWS V14.01,2013-07-04 12:23:00,
2013-07-04 08:28:00,63.9,62.1,30.10,West,277,0.0,0.0,94,0.00,,---,0.00,VWS V14.01,2013-07-04 12:28:00,
2013-07-04 08:34:00,63.9,62.1,30.10,WNW,292,0.0,0.0,94,0.00,,---,0.00,VWS V14.01,2013-07-04 12:34:00,
2013-07-04 08:39:00,63.9,62.1,30.10,SW,229,0.0,0.0,94,0.00,,---,0.00,VWS V14.01,2013-07-04 12:39:00,
2013-07-04 08:44:00,63.7,62.0,30.10,WSW,257,0.0,0.0,94,0.00,,---,0.00,VWS V14.01,2013-07-04 12:44:00,
2013-07-04 08:49:00,63.5,61.8,30.11,WNW,283,0.0,0.0,94,0.00,,---,0.00,VWS V14.01,2013-07-04 12:49:00,
2013-07-04 08:54:00,63.5,61.8,30.11,WNW,282,0.0,0.0,94,0.00,,---,0.00,VWS V14.01,2013-07-04 12:54:00,
2013-07-04 08:59:00,63.4,61.7,30.11,West,273,0.0,0.0,94,0.00,,---,0.00,VWS V14.01,2013-07-04 12:59:00,
2013-07-04 09:04:00,63.2,61.2,30.11,WSW,257,0.0,0.0,93,0.00,,---,0.00,VWS V14.01,2013-07-04 13:04:00,
2013-07-04 09:09:00,63.1,61.0,30.11,West,275,0.0,0.0,93,0.00,,---,0.00,VWS V14.01,2013-07-04 13:09:00,
2013-07-04 09:14:00,63.1,61.0,30.11,West,273,0.0,0.0,93,0.00,,---,0.00,VWS V14.01,2013-07-04 13:14:00,
2013-07-04 09:19:00,63.1,61.0,30.11,WSW,255,0.0,0.0,93,0.00,,---,0.00,VWS V14.01,2013-07-04 13:19:00,
2013-07-04 09:24:00,63.1,61.0,30.11,WSW,241,0.0,0.0,93,0.00,,---,0.00,VWS V14.01,2013-07-04 13:24:00,
2013-07-04 09:29:00,63.2,61.2,30.11,WSW,258,0.0,0.0,93,0.00,,---,0.00,VWS V14.01,2013-07-04 13:29:00,
2013-07-04 09:34:00,63.2,61.2,30.11,WSW,243,0.0,0.0,93,0.00,,---,0.00,VWS V14.01,2013-07-04 13:34:00,
2013-07-04 09:39:00,63.2,61.2,30.11,West,276,0.0,0.0,93,0.00,,---,0.00,VWS V14.01,2013-07-04 13:39:00,
2013-07-04 09:44:00,63.4,61.3,30.11,West,266,0.0,0.0,93,0.00,,---,0.00,VWS V14.01,2013-07-04 13:44:00,
2013-07-04 09:49:00,63.5,61.4,30.11,SW,228,0.0,0.0,93,0.00,,---,0.00,VWS V14.01,2013-07-04 13:49:00,
2013-07-04 09:54:00,63.9,61.5,30.11,SSW,205,0.0,0.0,92,0.00,,---,0.00,VWS V14.01,2013-07-04 13:54:00,
2013-07-04 09:59:00,64.2,61.8,30.11,SSW,210,0.0,0.0,92,0.00,,---,0.00,VWS V14.01,2013-07-04 13:59:00,
2013-07-04 10:04:00,64.3,61.6,30.11,SSW,201,0.0,0.0,91,0.00,,---,0.00,VWS V14.01,2013-07-04 14:04:00,
2013-07-04 10:09:00,64.3,61.0,30.11,WSW,237,0.0,0.0,89,0.00,,---,0.00,VWS V14.01,2013-07-04 14:09:00,
2013-07-04 10:14:00,64.5,61.2,30.11,West,268,0.0,0.0,89,0.00,,---,0.00,VWS V14.01,2013-07-04 14:14:00,
2013-07-04 10:19:00,64.7,61.1,30.11,WNW,287,0.0,0.0,88,0.00,,---,0.00,VWS V14.01,2013-07-04 14:19:00,
2013-07-04 10:24:00,64.7,61.1,30.11,SW,235,0.0,0.0,88,0.00,,---,0.00,VWS V14.01,2013-07-04 14:24:00,
2013-07-04 10:29:00,64.7,60.8,30.10,SW,234,0.0,0.0,87,0.00,,---,0.00,VWS V14.01,2013-07-04 14:29:00,
2013-07-04 10:34:00,64.8,60.8,30.10,SSW,197,0.0,0.0,87,0.00,,---,0.00,VWS V14.01,2013-07-04 14:34:00,
2013-07-04 10:39:00,65.0,61.0,30.10,WSW,249,0.0,0.0,87,0.00,,---,0.00,VWS V14.01,2013-07-04 14:39:00,
2013-07-04 10:44:00,65.0,61.0,30.10,West,261,0.0,0.0,87,0.00,,---,0.00,VWS V14.01,2013-07-04 14:44:00,
2013-07-04 10:49:00,65.2,61.2,30.11,WSW,254,0.0,0.0,87,0.00,,---,0.00,VWS V14.01,2013-07-04 14:49:00,
2013-07-04 10:54:00,65.5,61.5,30.11,WNW,286,0.0,0.0,87,0.00,,---,0.00,VWS V14.01,2013-07-04 14:54:00,
2013-07-04 10:59:00,65.6,61.3,30.10,WSW,254,0.0,0.0,86,0.00,,---,0.00,VWS V14.01,2013-07-04 14:59:00,
2013-07-04 11:04:00,66.0,61.7,30.10,West,263,0.0,0.0,86,0.00,,---,0.00,VWS V14.01,2013-07-04 15:04:00,
2013-07-04 11:09:00,66.3,61.7,30.11,West,259,0.0,0.0,85,0.00,,---,0.00,VWS V14.01,2013-07-04 15:09:00,
2013-07-04 11:14:00,66.4,61.8,30.10,WSW,240,0.0,0.0,85,0.00,,---,0.00,VWS V14.01,2013-07-04 15:14:00,
2013-07-04 11:19:00,66.3,61.3,30.11,South,188,0.0,0.0,84,0.00,,---,0.00,VWS V14.01,2013-07-04 15:19:00,
2013-07-04 11:24:00,66.4,61.8,30.10,West,279,0.0,0.0,85,0.00,,---,0.00,VWS V14.01,2013-07-04 15:24:00,
2013-07-04 11:29:00,66.6,62.0,30.11,SW,215,0.0,0.0,85,0.00,,---,0.00,VWS V14.01,2013-07-04 15:29:00,
2013-07-04 11:34:00,66.8,62.2,30.11,West,274,0.0,0.0,85,0.00,,---,0.00,VWS V14.01,2013-07-04 15:34:00,
2013-07-04 11:39:00,67.1,62.1,30.11,NW,313,0.0,0.0,84,0.00,,---,0.00,VWS V14.01,2013-07-04 15:39:00,
2013-07-04 11:40:00,67.1,62.1,30.10,West,274,0.0,0.0,84,0.00,,---,0.00,VWS V14.01,2013-07-04 15:40:00,
2013-07-04 11:45:00,67.3,62.0,30.10,NW,321,0.0,0.0,83,0.00,,---,0.00,VWS V14.01,2013-07-04 15:45:00,
2013-07-04 11:50:00,67.8,62.5,30.10,SSW,205,0.0,0.0,83,0.00,,---,0.00,VWS V14.01,2013-07-04 15:50:00,
2013-07-04 11:55:00,68.1,62.4,30.10,SW,215,0.0,0.0,82,0.00,,---,0.00,VWS V14.01,2013-07-04 15:55:00,
2013-07-04 12:00:00,68.3,62.2,30.10,WNW,300,0.0,0.0,81,0.00,,---,0.00,VWS V14.01,2013-07-04 16:00:00,
2013-07-04 12:05:00,68.6,62.2,30.11,WSW,246,0.0,0.0,80,0.00,,---,0.00,VWS V14.01,2013-07-04 16:05:00,
2013-07-04 12:10:00,68.8,62.4,30.10,WSW,246,0.0,0.0,80,0.00,,---,0.00,VWS V14.01,2013-07-04 16:10:00,
2013-07-04 12:15:00,68.9,62.5,30.10,SW,236,0.0,0.0,80,0.00,,---,0.00,VWS V14.01,2013-07-04 16:15:00,
2013-07-04 12:20:00,69.3,62.5,30.10,NNW,335,0.0,0.0,79,0.00,,---,0.00,VWS V14.01,2013-07-04 16:20:00,
2013-07-04 12:25:00,69.8,62.6,30.10,WNW,296,0.0,0.0,78,0.00,,---,0.00,VWS V14.01,2013-07-04 16:25:00,
2013-07-04 12:30:00,69.9,62.7,30.10,SSW,198,0.0,0.0,78,0.00,,---,0.00,VWS V14.01,2013-07-04 16:30:00,
2013-07-04 12:35:00,70.9,63.7,30.10,SW,222,0.0,0.0,78,0.00,,---,0.00,VWS V14.01,2013-07-04 16:35:00,
2013-07-04 12:40:00,72.3,63.9,30.10,WSW,252,0.0,0.0,75,0.00,,---,0.00,VWS V14.01,2013-07-04 16:40:00,
2013-07-04 12:45:00,72.7,62.4,30.09,WNW,283,0.0,0.0,70,0.00,,---,0.00,VWS V14.01,2013-07-04 16:45:00,
2013-07-04 12:46:00,72.7,62.8,30.09,SW,223,0.0,0.0,71,0.00,,---,0.00,VWS V14.01,2013-07-04 16:46:00,
2013-07-04 12:51:00,72.7,62.4,30.09,West,279,0.0,0.0,70,0.00,,---,0.00,VWS V14.01,2013-07-04 16:51:00,
2013-07-04 12:56:00,72.5,62.2,30.09,WNW,299,0.0,0.0,70,0.00,,---,0.00,VWS V14.01,2013-07-04 16:56:00,
2013-07-04 13:01:00,72.3,62.0,30.09,West,267,0.0,0.0,70,0.00,,---,0.00,VWS V14.01,2013-07-04 17:01:00,
2013-07-04 13:06:00,72.5,62.2,30.09,WNW,283,0.0,0.0,70,0.00,,---,0.00,VWS V14.01,2013-07-04 17:06:00,
2013-07-04 13:11:00,72.8,62.5,30.09,WSW,244,0.0,0.0,70,0.00,,---,0.00,VWS V14.01,2013-07-04 17:11:00,
2013-07-04 13:16:00,73.2,62.4,30.09,SSW,209,0.0,0.0,69,0.00,,---,0.00,VWS V14.01,2013-07-04 17:16:00,
2013-07-04 13:21:00,73.7,62.9,30.09,West,281,0.0,0.0,69,0.00,,---,0.00,VWS V14.01,2013-07-04 17:21:00,
2013-07-04 13:26:00,73.9,63.1,30.09,WSW,248,0.0,0.0,69,0.00,,---,0.00,VWS V14.01,2013-07-04 17:26:00,
2013-07-04 13:31:00,74.2,63.0,30.09,West,271,0.0,0.0,68,0.00,,---,0.00,VWS V14.01,2013-07-04 17:31:00,
2013-07-04 13:36:00,74.7,62.2,30.09,SW,217,0.0,0.0,65,0.00,,---,0.00,VWS V14.01,2013-07-04 17:36:00,
2013-07-04 13:41:00,74.9,62.3,30.09,WSW,242,0.0,0.0,65,0.00,,---,0.00,VWS V14.01,2013-07-04 17:41:00,
2013-07-04 13:46:00,74.9,62.3,30.08,SSW,201,0.0,0.0,65,0.00,,---,0.00,VWS V14.01,2013-07-04 17:46:00,
2013-07-04 13:51:00,74.7,62.6,30.08,WSW,250,0.0,0.0,66,0.00,,---,0.00,VWS V14.01,2013-07-04 17:51:00,
2013-07-04 13:56:00,74.6,63.3,30.08,SSW,213,0.0,0.0,68,0.00,,---,0.00,VWS V14.01,2013-07-04 17:56:00,
2013-07-04 14:01:00,74.9,63.6,30.08,WSW,241,0.0,0.0,68,0.00,,---,0.00,VWS V14.01,2013-07-04 18:01:00,
2013-07-04 14:06:00,75.4,62.8,30.08,SSW,204,0.0,0.0,65,0.00,,---,0.00,VWS V14.01,2013-07-04 18:06:00,
2013-07-04 14:11:00,75.6,62.1,30.08,SW,225,0.0,0.0,63,0.00,,---,0.00,VWS V14.01,2013-07-04 18:11:00,
2013-07-04 14:16:00,75.3,62.7,30.09,SW,225,0.0,0.0,65,0.00,,---,0.00,VWS V14.01,2013-07-04 18:16:00,
2013-07-04 14:21:00,75.1,62.5,30.08,WSW,238,0.0,0.0,65,0.00,,---,0.00,VWS V14.01,2013-07-04 18:21:00,
2013-07-04 14:26:00,75.6,63.0,30.08,SSW,200,0.0,0.0,65,0.00,,---,0.00,VWS V14.01,2013-07-04 18:26:00,
2013-07-04 14:31:00,76.1,63.0,30.08,West,261,0.0,0.0,64,0.00,,---,0.00,VWS V14.01,2013-07-04 18:31:00,
2013-07-04 14:36:00,76.8,62.3,30.08,SSW,213,0.0,0.0,61,0.00,,---,0.00,VWS V14.01,2013-07-04 18:36:00,
2013-07-04 14:41:00,77.0,62.5,30.07,West,279,0.0,0.0,61,0.00,,---,0.00,VWS V14.01,2013-07-04 18:41:00,
2013-07-04 14:46:00,77.2,62.7,30.08,SSW,192,0.0,0.0,61,0.00,,---,0.00,VWS V14.01,2013-07-04 18:46:00,
2013-07-04 14:51:00,77.9,62.0,30.07,West,278,0.0,0.0,58,0.00,,---,0.00,VWS V14.01,2013-07-04 18:51:00,
2013-07-04 14:56:00,78.3,62.8,30.07,WSW,254,0.0,0.0,59,0.00,,---,0.00,VWS V14.01,2013-07-04 18:56:00,
2013-07-04 15:01:00,78.8,63.3,30.07,SSE,157,0.0,0.0,59,0.00,,---,0.00,VWS V14.01,2013-07-04 19:01:00,
2013-07-04 15:06:00,79.0,62.5,30.07,South,181,0.0,0.0,57,0.00,,---,0.00,VWS V14.01,2013-07-04 19:06:00,
2013-07-04 15:11:00,78.6,62.1,30.07,SW,227,0.0,0.0,57,0.00,,---,0.00,VWS V14.01,2013-07-04 19:11:00,
2013-07-04 15:16:00,78.3,62.3,30.07,WSW,246,0.0,0.0,58,0.00,,---,0.00,VWS V14.01,2013-07-04 19:16:00,
2013-07-04 15:21:00,78.1,62.1,30.07,SSW,211,0.0,0.0,58,0.00,,---,0.00,VWS V14.01,2013-07-04 19:21:00,
2013-07-04 15:26:00,78.1,62.1,30.07,SW,232,0.0,0.0,58,0.00,,---,0.00,VWS V14.01,2013-07-04 19:26:00,
2013-07-04 15:31:00,78.5,62.5,30.07,WNW,285,0.0,0.0,58,0.00,,---,0.00,VWS V14.01,2013-07-04 19:31:00,
2013-07-04 15:36:00,78.6,62.6,30.07,SW,234,0.0,0.0,58,0.00,,---,0.00,VWS V14.01,2013-07-04 19:36:00,
2013-07-04 15:41:00,78.5,61.5,30.07,West,271,0.0,0.0,56,0.00,,---,0.00,VWS V14.01,2013-07-04 19:41:00,
2013-07-04 15:46:00,78.3,61.8,30.07,WSW,257,0.0,0.0,57,0.00,,---,0.00,VWS V14.01,2013-07-04 19:46:00,
2013-07-04 15:51:00,78.5,62.0,30.07,SSW,204,0.0,0.0,57,0.00,,---,0.00,VWS V14.01,2013-07-04 19:51:00,
2013-07-04 15:57:00,79.0,61.5,30.07,SW,220,0.0,0.0,55,0.00,,---,0.00,VWS V14.01,2013-07-04 19:57:00,
2013-07-04 16:02:00,79.4,61.8,30.06,SW,231,0.0,0.0,55,0.00,,---,0.00,VWS V14.01,2013-07-04 20:02:00,
2013-07-04 16:07:00,79.6,62.0,30.06,SW,224,0.0,0.0,55,0.00,,---,0.00,VWS V14.01,2013-07-04 20:07:00,
2013-07-04 16:12:00,79.4,61.8,30.06,SW,219,0.0,0.0,55,0.00,,---,0.00,VWS V14.01,2013-07-04 20:12:00,
2013-07-04 16:17:00,79.2,61.7,30.06,West,266,0.0,0.0,55,0.00,,---,0.00,VWS V14.01,2013-07-04 20:17:00,
2013-07-04 16:22:00,78.8,62.3,30.06,SSW,207,0.0,0.0,57,0.00,,---,0.00,VWS V14.01,2013-07-04 20:22:00,
2013-07-04 16:27:00,78.6,61.6,30.06,SW,216,0.0,0.0,56,0.00,,---,0.00,VWS V14.01,2013-07-04 20:27:00,
2013-07-04 16:32:00,78.5,61.0,30.05,SSW,198,0.0,0.0,55,0.00,,---,0.00,VWS V14.01,2013-07-04 20:32:00,
2013-07-04 16:37:00,78.1,60.1,30.05,SW,226,0.0,0.0,54,0.00,,---,0.00,VWS V14.01,2013-07-04 20:37:00,
2013-07-04 16:42:00,78.1,59.6,30.06,West,261,0.0,0.0,53,0.00,,---,0.00,VWS V14.01,2013-07-04 20:42:00,
2013-07-04 16:47:00,78.5,61.0,30.05,South,191,0.0,0.0,55,0.00,,---,0.00,VWS V14.01,2013-07-04 20:47:00,
2013-07-04 16:52:00,78.8,61.3,30.06,WSW,250,0.0,0.0,55,0.00,,---,0.00,VWS V14.01,2013-07-04 20:52:00,
2013-07-04 16:57:00,78.8,60.2,30.06,SSW,207,0.0,0.0,53,0.00,,---,0.00,VWS V14.01,2013-07-04 20:57:00,
2013-07-04 17:02:00,79.0,61.0,30.06,WSW,252,0.0,0.0,54,0.00,,---,0.00,VWS V14.01,2013-07-04 21:02:00,
2013-07-04 17:07:00,79.0,60.4,30.06,SW,231,0.0,0.0,53,0.00,,---,0.00,VWS V14.01,2013-07-04 21:07:00,
2013-07-04 17:12:00,79.0,61.0,30.06,North,11,0.0,0.0,54,0.00,,---,0.00,VWS V14.01,2013-07-04 21:12:00,
2013-07-04 17:17:00,78.8,60.2,30.05,WSW,252,0.0,0.0,53,0.00,,---,0.00,VWS V14.01,2013-07-04 21:17:00,
2013-07-04 17:22:00,78.8,61.3,30.05,WNW,286,0.0,0.0,55,0.00,,---,0.00,VWS V14.01,2013-07-04 21:22:00,
2013-07-04 17:27:00,78.6,60.6,30.05,WNW,291,0.0,0.0,54,0.00,,---,0.00,VWS V14.01,2013-07-04 21:27:00,
2013-07-04 17:32:00,79.0,61.5,30.05,South,169,0.0,0.0,55,0.00,,---,0.00,VWS V14.01,2013-07-04 21:32:00,
2013-07-04 17:37:00,79.2,60.6,30.05,West,267,0.0,0.0,53,0.00,,---,0.00,VWS V14.01,2013-07-04 21:37:00,
2013-07-04 17:42:00,79.0,61.0,30.06,West,277,0.0,0.0,54,0.00,,---,0.00,VWS V14.01,2013-07-04 21:42:00,
2013-07-04 17:47:00,79.2,61.1,30.05,SW,225,0.0,0.0,54,0.00,,---,0.00,VWS V14.01,2013-07-04 21:47:00,
2013-07-04 17:52:00,79.4,61.8,30.05,SW,236,0.0,0.0,55,0.00,,---,0.00,VWS V14.01,2013-07-04 21:52:00,
2013-07-04 17:57:00,79.6,61.5,30.05,West,269,0.0,0.0,54,0.00,,---,0.00,VWS V14.01,2013-07-04 21:57:00,
2013-07-04 18:02:00,79.4,61.3,30.05,SSW,208,0.0,0.0,54,0.00,,---,0.00,VWS V14.01,2013-07-04 22:02:00,
2013-07-04 18:07:00,79.2,61.7,30.05,SW,214,0.0,0.0,55,0.00,,---,0.00,VWS V14.01,2013-07-04 22:07:00,
2013-07-04 18:12:00,79.2,62.2,30.05,WNW,294,0.0,0.0,56,0.00,,---,0.00,VWS V14.01,2013-07-04 22:12:00,
2013-07-04 18:17:00,79.2,63.2,30.05,West,274,0.0,0.0,58,0.00,,---,0.00,VWS V14.01,2013-07-04 22:17:00,
2013-07-04 18:22:00,79.2,64.1,30.05,North,10,0.0,0.0,60,0.00,,---,0.00,VWS V14.01,2013-07-04 22:22:00,
2013-07-04 18:27:00,78.8,63.8,30.05,NNW,346,0.0,0.0,60,0.00,,---,0.00,VWS V14.01,2013-07-04 22:27:00,
2013-07-04 18:32:00,78.3,62.3,30.05,NNE,29,0.0,0.0,58,0.00,,---,0.00,VWS V14.01,2013-07-04 22:32:00,
2013-07-04 18:37:00,78.3,63.3,30.05,NNW,341,0.0,0.0,60,0.00,,---,0.00,VWS V14.01,2013-07-04 22:37:00,
2013-07-04 18:42:00,78.1,63.1,30.05,NNW,342,0.0,0.0,60,0.00,,---,0.00,VWS V14.01,2013-07-04 22:42:00,
2013-07-04 18:47:00,78.1,63.6,30.06,NNE,28,0.0,0.0,61,0.00,,---,0.00,VWS V14.01,2013-07-04 22:47:00,
2013-07-04 18:52:00,77.9,62.0,30.06,WNW,302,0.0,0.0,58,0.00,,---,0.00,VWS V14.01,2013-07-04 22:52:00,
2013-07-04 18:57:00,77.7,62.2,30.05,NNW,327,0.0,0.0,59,0.00,,---,0.00,VWS V14.01,2013-07-04 22:57:00,
2013-07-04 19:02:00,77.6,61.7,30.05,NW,319,0.0,0.0,58,0.00,,---,0.00,VWS V14.01,2013-07-04 23:02:00,
2013-07-04 19:07:00,77.4,62.0,30.05,NNE,19,0.0,0.0,59,0.00,,---,0.00,VWS V14.01,2013-07-04 23:07:00,
2013-07-04 19:12:00,77.4,61.5,30.05,WSW,238,0.0,0.0,58,0.00,,---,0.00,VWS V14.01,2013-07-04 23:12:00,
2013-07-04 19:17:00,77.6,61.7,30.05,WNW,292,0.0,0.0,58,0.00,,---,0.00,VWS V14.01,2013-07-04 23:17:00,
2013-07-04 19:22:00,77.6,61.2,30.05,North,9,0.0,0.0,57,0.00,,---,0.00,VWS V14.01,2013-07-04 23:22:00,
2013-07-04 19:27:00,77.6,61.2,30.05,NW,322,0.0,0.0,57,0.00,,---,0.00,VWS V14.01,2013-07-04 23:27:00,
2013-07-04 19:32:00,77.0,61.1,30.05,NW,322,0.0,0.0,58,0.00,,---,0.00,VWS V14.01,2013-07-04 23:32:00,
2013-07-04 19:37:00,76.8,60.9,30.05,NW,309,0.0,0.0,58,0.00,,---,0.00,VWS V14.01,2013-07-04 23:37:00,
2013-07-04 19:42:00,76.8,60.9,30.05,NW,304,0.0,0.0,58,0.00,,---,0.00,VWS V14.01,2013-07-04 23:42:00,
2013-07-04 19:47:00,77.0,61.1,30.05,NW,304,0.0,0.0,58,0.00,,---,0.00,VWS V14.01,2013-07-04 23:47:00,
2013-07-04 19:52:00,77.2,60.8,30.05,NW,306,0.0,0.0,57,0.00,,---,0.00,VWS V14.01,2013-07-04 23:52:00,
2013-07-04 19:57:00,77.4,61.0,30.05,NW,305,0.0,0.0,57,0.00,,---,0.00,VWS V14.01,2013-07-04 23:57:00,
2013-07-04 20:02:00,77.2,61.3,30.04,NW,306,0.0,0.0,58,0.00,,---,0.00,VWS V14.01,2013-07-05 00:02:00,
2013-07-04 20:07:00,77.2,61.3,30.05,NW,306,0.0,0.0,58,0.00,,---,0.00,VWS V14.01,2013-07-05 00:07:00,
2013-07-04 20:13:00,77.2,60.3,30.05,West,265,0.0,0.0,56,0.00,,---,0.00,VWS V14.01,2013-07-05 00:13:00,
2013-07-04 20:18:00,77.0,61.1,30.05,West,265,0.0,0.0,58,0.00,,---,0.00,VWS V14.01,2013-07-05 00:18:00,
2013-07-04 20:23:00,76.8,60.4,30.04,West,259,0.0,0.0,57,0.00,,---,0.00,VWS V14.01,2013-07-05 00:23:00,
2013-07-04 20:28:00,76.5,60.2,30.04,West,261,0.0,0.0,57,0.00,,---,0.00,VWS V14.01,2013-07-05 00:28:00,
2013-07-04 20:33:00,76.1,60.3,30.04,West,261,0.0,0.0,58,0.00,,---,0.00,VWS V14.01,2013-07-05 00:33:00,
2013-07-04 20:38:00,76.0,61.1,30.04,West,261,0.0,0.0,60,0.00,,---,0.00,VWS V14.01,2013-07-05 00:38:00,
2013-07-04 20:43:00,75.6,60.8,30.03,West,261,0.0,0.0,60,0.00,,---,0.00,VWS V14.01,2013-07-05 00:43:00,
2013-07-04 20:48:00,75.3,60.9,30.03,West,261,0.0,0.0,61,0.00,,---,0.00,VWS V14.01,2013-07-05 00:48:00,
2013-07-04 20:53:00,74.9,61.0,30.04,West,261,0.0,0.0,62,0.00,,---,0.00,VWS V14.01,2013-07-05 00:53:00,
2013-07-04 20:58:00,74.6,60.7,30.04,West,261,0.0,0.0,62,0.00,,---,0.00,VWS V14.01,2013-07-05 00:58:00,
2013-07-04 21:03:00,74.2,60.8,30.04,West,261,0.0,0.0,63,0.00,,---,0.00,VWS V14.01,2013-07-05 01:03:00,
2013-07-04 21:08:00,74.0,61.1,30.04,West,261,0.0,0.0,64,0.00,,---,0.00,VWS V14.01,2013-07-05 01:08:00,
2013-07-04 21:13:00,73.7,60.8,30.04,West,261,0.0,0.0,64,0.00,,---,0.00,VWS V14.01,2013-07-05 01:13:00,
2013-07-04 21:18:00,73.3,60.8,30.04,West,261,0.0,0.0,65,0.00,,---,0.00,VWS V14.01,2013-07-05 01:18:00,
2013-07-04 21:23:00,73.0,61.0,30.04,West,261,0.0,0.0,66,0.00,,---,0.00,VWS V14.01,2013-07-05 01:23:00,
2013-07-04 21:28:00,72.8,60.8,30.04,West,260,0.0,0.0,66,0.00,,---,0.00,VWS V14.01,2013-07-05 01:28:00,
2013-07-04 21:33:00,72.5,60.5,30.04,West,260,0.0,0.0,66,0.00,,---,0.00,VWS V14.01,2013-07-05 01:33:00,
2013-07-04 21:38:00,72.1,60.5,30.05,SSW,208,0.0,0.0,67,0.00,,---,0.00,VWS V14.01,2013-07-05 01:38:00,
2013-07-04 21:43:00,72.0,60.5,30.05,West,265,0.0,0.0,67,0.00,,---,0.00,VWS V14.01,2013-07-05 01:43:00,
2013-07-04 21:48:00,71.8,60.7,30.05,NNW,327,0.0,0.0,68,0.00,,---,0.00,VWS V14.01,2013-07-05 01:48:00,
2013-07-04 21:53:00,71.5,60.4,30.06,West,259,0.0,0.0,68,0.00,,---,0.00,VWS V14.01,2013-07-05 01:53:00,
2013-07-04 21:58:00,71.3,61.0,30.06,West,259,0.0,0.0,70,0.00,,---,0.00,VWS V14.01,2013-07-05 01:58:00,
2013-07-04 22:03:00,71.1,61.2,30.06,West,259,0.0,0.0,71,0.00,,---,0.00,VWS V14.01,2013-07-05 02:03:00,
2013-07-04 22:08:00,70.8,60.5,30.06,West,259,0.0,0.0,70,0.00,,---,0.00,VWS V14.01,2013-07-05 02:08:00,
2013-07-04 22:13:00,70.4,60.2,30.06,West,259,0.0,0.0,70,0.00,,---,0.00,VWS V14.01,2013-07-05 02:13:00,
2013-07-04 22:18:00,70.1,60.3,30.06,West,259,0.0,0.0,71,0.00,,---,0.00,VWS V14.01,2013-07-05 02:18:00,
2013-07-04 22:23:00,69.8,60.4,30.06,West,259,0.0,0.0,72,0.00,,---,0.00,VWS V14.01,2013-07-05 02:23:00,
2013-07-04 22:28:00,69.4,60.0,30.06,West,259,0.0,0.0,72,0.00,,---,0.00,VWS V14.01,2013-07-05 02:28:00,
2013-07-04 22:33:00,68.9,59.5,30.06,West,259,0.0,0.0,72,0.00,,---,0.00,VWS V14.01,2013-07-05 02:33:00,
2013-07-04 22:38:00,68.6,59.2,30.06,West,259,0.0,0.0,72,0.00,,---,0.00,VWS V14.01,2013-07-05 02:38:00,
2013-07-04 22:43:00,68.3,59.3,30.07,West,259,0.0,0.0,73,0.00,,---,0.00,VWS V14.01,2013-07-05 02:43:00,
2013-07-04 22:48:00,68.1,59.5,30.07,West,259,0.0,0.0,74,0.00,,---,0.00,VWS V14.01,2013-07-05 02:48:00,
2013-07-04 22:53:00,67.8,59.6,30.07,West,259,0.0,0.0,75,0.00,,---,0.00,VWS V14.01,2013-07-05 02:53:00,
2013-07-04 22:58:00,67.4,59.2,30.07,West,259,0.0,0.0,75,0.00,,---,0.00,VWS V14.01,2013-07-05 02:58:00,
2013-07-04 23:03:00,67.1,59.3,30.07,West,259,0.0,0.0,76,0.00,,---,0.00,VWS V14.01,2013-07-05 03:03:00,
2013-07-04 23:08:00,66.8,59.7,30.07,West,259,0.0,0.0,78,0.00,,---,0.00,VWS V14.01,2013-07-05 03:08:00,
2013-07-04 23:13:00,66.3,59.2,30.07,West,259,0.0,0.0,78,0.00,,---,0.00,VWS V14.01,2013-07-05 03:13:00,
2013-07-04 23:18:00,66.0,59.7,30.07,SSW,206,0.0,0.0,80,0.00,,---,0.00,VWS V14.01,2013-07-05 03:18:00,
2013-07-04 23:23:00,65.6,60.0,30.07,SSW,213,0.0,0.0,82,0.00,,---,0.00,VWS V14.01,2013-07-05 03:23:00,
2013-07-04 23:28:00,65.8,61.2,30.07,SSW,200,0.0,0.0,85,0.00,,---,0.00,VWS V14.01,2013-07-05 03:28:00,
2013-07-04 23:33:00,65.8,61.5,30.07,South,178,0.0,0.0,86,0.00,,---,0.00,VWS V14.01,2013-07-05 03:33:00,
2013-07-04 23:38:00,65.6,61.0,30.07,South,178,0.0,0.0,85,0.00,,---,0.00,VWS V14.01,2013-07-05 03:38:00,
2013-07-04 23:43:00,65.6,61.3,30.07,South,174,0.0,0.0,86,0.00,,---,0.00,VWS V14.01,2013-07-05 03:43:00,
2013-07-04 23:48:00,65.5,61.2,30.07,South,174,0.0,0.0,86,0.00,,---,0.00,VWS V14.01,2013-07-05 03:48:00,
2013-07-04 23:53:00,65.3,61.0,30.07,SSE,157,0.0,0.0,86,0.00,,---,0.00,VWS V14.01,2013-07-05 03:53:00,
2013-07-04 23:58:00,65.2,60.9,30.07,South,173,0.0,0.0,86,0.00,,---,0.00,VWS V14.01,2013-07-05 03:58:00,